Weather History for San Jose, Costa Rica

Change the Weather History Date:

Tuesday, August 13, 2013

  Actual Average Record
Temperature  
Mean Temperature 74 °F -  
Max Temperature 82 °F 80 °F 87 °F (2014)
Min Temperature 65 °F 64 °F 62 °F (1999)
Cooling Degree Days 8    
Growing Degree Days 24 (Base 50)    
Moisture  
Dew Point 67 °F    
Average Humidity 86    
Maximum Humidity 100    
Minimum Humidity 61    
Precipitation  
Precipitation 0.04 in 0.41 in - ()
Sea Level Pressure  
Sea Level Pressure 29.96 in    
Wind  
Wind Speed 5 mph ()    
Max Wind Speed 13 mph    
Max Gust Speed -    
Visibility 5.7 miles    
Events Fog , Rain    
Averages and records for this station are not official NWS values.
T = Trace of Precipitation, MM = Missing Value Source: Averaged Metar Reports

Daily Weather History Graph

Daily Weather History Graph

Search for Another Location

Airport:

Trip Planner

Search our weather history database for the weather conditions in past years. The results will help you decide how hot, cold, wet, or windy it might be!

Date:

Astronomy

Aug. 13, 2013 Rise Set
Actual Time 5:27 AM CST 5:55 PM CST
Civil Twilight 5:05 AM CST 6:17 PM CST
Nautical Twilight 4:40 AM CST 6:42 PM CST
Astronomical Twilight 4:14 AM CST 7:08 PM CST
Moon 10:56 AM CST (8/13) 10:58 PM CST (8/13)
Length of Visible Light 13h 11m
Length of Day
12h 27m
Waxing Crescent, 42% of the Moon is Illuminated
Aug 13
Waxing Crescent
Aug 14
First Quarter
Aug 20
Full
Aug 28
Last Quarter
Sep 5
New

Hourly Weather History & Observations

Time (CST) Temp. Heat Index Dew Point Humidity Pressure Visibility Wind Dir Wind Speed Gust Speed Precip Events Conditions
12:00 AM 68 °F - 67 °F 94% 29.85 in 9 mi South 4.6 mph - -   Mist
12:00 AM 68.0 °F - 66.2 °F 94% 30.01 in 6.2 mi South 4.6 mph - N/A   Mostly Cloudy
1:00 AM 68.0 °F - 66.2 °F 94% 30.00 in 6.2 mi SSW 3.5 mph - N/A   Mostly Cloudy
2:00 AM 68.0 °F - 66.2 °F 94% 29.99 in 6.2 mi NW 3.5 mph - N/A   Mostly Cloudy
3:00 AM 67 °F - 66 °F 95% 29.86 in 12 mi SSE 3.5 mph - -   Mist
3:00 AM 68.0 °F - 66.2 °F 94% 29.97 in 6.2 mi SSE 3.5 mph - N/A Fog Patches of Fog
4:00 AM 66.2 °F - 64.4 °F 94% 29.96 in - ENE 4.6 mph - N/A   Clear
5:00 AM 66.2 °F - 64.4 °F 94% 29.97 in 1.2 mi SSW 4.6 mph - N/A   Mostly Cloudy
5:05 AM 66.2 °F - 64.4 °F 94% 29.97 in 5.0 mi SSW 2.3 mph - N/A Fog Fog
6:00 AM 66 °F - 65 °F 95% 29.84 in 12 mi NE 4.6 mph - -   Scattered Clouds
6:00 AM 66.2 °F - 64.4 °F 94% 29.99 in 6.2 mi NE 4.6 mph - N/A   Mostly Cloudy
7:00 AM 68.0 °F - 64.4 °F 88% 30.00 in - ENE 3.5 mph - N/A   Clear
8:00 AM 69.8 °F - 64.4 °F 83% 30.02 in - NE 5.8 mph - N/A   Clear
9:00 AM 74 °F - 64 °F 63% 29.87 in 12 mi East 3.5 mph - -   Partly Cloudy
9:00 AM 75.2 °F - 64.4 °F 69% 30.02 in - East 3.5 mph - N/A   Clear
10:00 AM 78.8 °F - 64.4 °F 61% 30.02 in 6.2 mi SW 8.1 mph - N/A   Mostly Cloudy
11:00 AM 80.6 °F 82.7 °F 66.2 °F 61% 30.00 in 6.2 mi WSW 3.5 mph - N/A   Mostly Cloudy
12:00 PM 78.8 °F - 66.2 °F 65% 29.98 in 6.2 mi SW 10.4 mph - N/A   Mostly Cloudy
1:00 PM 80.6 °F 83.2 °F 68.0 °F 65% 29.96 in 6.2 mi WSW 12.7 mph - N/A   Mostly Cloudy
2:00 PM 78.8 °F - 69.8 °F 74% 29.94 in 6.2 mi WSW 10.4 mph - N/A   Scattered Clouds
3:00 PM 78.8 °F - 69.8 °F 74% 29.92 in 6.2 mi WSW 11.5 mph - N/A   Mostly Cloudy
3:45 PM 75.2 °F - 68.0 °F 78% 29.92 in 6.2 mi WSW 10.4 mph - N/A Rain Light Rain
4:00 PM 73.4 °F - 68.0 °F 83% 29.92 in 6.2 mi WSW 9.2 mph - N/A   Mostly Cloudy
5:00 PM 71.6 °F - 69.8 °F 94% 29.93 in 3.1 mi West 9.2 mph - N/A Rain Rain
6:00 PM 70 °F - 69 °F 97% 29.80 in 3 mi WSW 6.9 mph - - Rain Light Rain
6:00 PM 69.8 °F - 69.8 °F 100% 29.95 in 3.1 mi WSW 6.9 mph - N/A   Mostly Cloudy
7:00 PM 69.8 °F - 69.8 °F 100% 29.97 in 3.1 mi WSW 4.6 mph - N/A   Mostly Cloudy
8:00 PM 69.8 °F - 68.0 °F 94% 29.98 in 3.1 mi WNW 3.5 mph - N/A   Drizzle
9:00 PM 69.8 °F - 68.0 °F 94% 30.00 in 3.1 mi West 2.3 mph - N/A   Light Drizzle
10:00 PM 69.8 °F - 68.0 °F 94% 30.01 in 0.7 mi SSW 3.5 mph - N/A   Mostly Cloudy
11:00 PM 69.8 °F - 68.0 °F 94% 30.01 in 1.9 mi Calm Calm - N/A   Drizzle